Home   Weather   Leicester   Past weeks

Flag for United Kingdom Past Weather in Leicester, England, United Kingdom — Yesterday and Last 2 Weeks

Now
28 °F

Ice fog.


Feels Like: 28 °F
Forecast: 30 / 44 °F
Wind: 2 mph from North

Location: East Midlands

Current Time: Jan 24, 2017 at 5:16:52 am

Latest Report: Jan 24, 2017 at 4:20 am


Visibility: 2 mi

Pressure: 30.27 "Hg

Humidity: 100%

Dew Point: 28 °F

Location of LeicesterLocation

Past Weather in Leicester — Graph

°F

Leicester Temperature Yesterday

Maximum temperature yesterday: 41 °F (at 6:20 pm)
Minimum temperature yesterday: 32 °F (at 7:20 am)
Average temperature yesterday: 36 °F

High & Low Weather Summary for the Past Weeks

 TemperatureHumidityPressure
High52 °F (Jan 11, 5:20 am)100% (Jan 9, 3:20 am)30.66 "Hg (Jan 9, 3:20 am)
Low25 °F (Jan 24, 12:20 am)57% (Jan 11, 3:50 pm)29.42 "Hg (Jan 12, 4:50 pm)
Average39 °F91%30.19 "Hg
* Reported Jan 9 3:20 am — Jan 24 3:50 am, Leicester, Weather by CustomWeather, © 2017

Note: Actual official high and low records may vary slightly from our data, if they occured in-between our weather recording intervals... More about our weather records

Advertising

Leicester Weather History for the Previous 24 Hours

Scroll right to see more
 ConditionsComfort  
Time TempWeatherWind HumidityBarometerVisibility
3:50 am
Tue, Jan 24
28 °FIce fog.3 mph100%30.27 "Hg2 mi
3:20 am30 °FIce fog.2 mph93%30.30 "Hg1 mi
2:50 am28 °FIce fog.3 mph100%30.30 "Hg1 mi
2:20 am27 °FIce fog.2 mph100%30.30 "Hg1 mi
1:50 am27 °FIce fog.3 mph100%30.30 "Hg1 mi
1:20 am25 °FIce fog.2 mph100%30.30 "Hg1 mi
12:50 am27 °FIce fog.2 mph100%30.30 "Hg1 mi
12:20 am25 °FIce fog.2 mph100%30.30 "Hg1 mi
11:50 pm
Mon, Jan 23
32 °FIce fog.No wind100%30.30 "Hg1 mi
11:20 pm34 °FFog.No wind100%30.30 "Hg1 mi
10:50 pm34 °FFog.2 mph100%30.30 "Hg1 mi
10:20 pm37 °FFog.3 mph93%30.30 "Hg1 mi
9:50 pm36 °FFog.No wind100%30.30 "Hg1 mi
9:20 pm36 °FFog.No wind100%30.30 "Hg1 mi
8:50 pm37 °FFog.2 mph93%30.30 "Hg1 mi
8:20 pm37 °FChilly.No wind100%30.30 "Hg2 mi
7:50 pm37 °FFog.5 mph93%30.30 "Hg3 mi
7:20 pm39 °FFog.No wind93%30.30 "Hg3 mi
6:50 pm41 °FFog.3 mph93%30.30 "Hg3 mi
6:20 pm41 °FFog.6 mph93%30.30 "Hg3 mi
5:50 pm39 °FFog.5 mph100%30.30 "Hg2 mi
5:20 pm39 °FFog.3 mph93%30.30 "Hg1 mi
4:50 pm39 °FFog.6 mph100%30.30 "Hg1 mi
4:20 pm39 °FFog.2 mph93%30.30 "Hg1 mi
3:50 pm39 °FLight rain. Partly sunny.2 mph100%30.30 "Hg1 mi
3:20 pm39 °FFog.No wind100%30.30 "Hg1 mi
2:50 pm39 °FFog.3 mph100%30.30 "Hg1 mi
2:20 pm39 °FFog.2 mph100%30.30 "Hg2 mi
1:50 pm39 °FFog.3 mph100%30.33 "Hg1 mi
1:20 pm37 °FFog.No wind100%30.33 "Hg1 mi
12:50 pm37 °FFog.3 mph100%30.33 "Hg1 mi
12:20 pm36 °FFog.3 mph100%30.33 "Hg0 mi
11:50 am36 °FFog.2 mph100%30.33 "Hg0 mi
11:20 am36 °FFog.6 mph100%30.36 "Hg0 mi
10:50 am34 °FFog.5 mph100%30.36 "Hg0 mi
10:20 am34 °FFog.3 mph100%30.36 "Hg0 mi
9:50 am34 °FFog.No wind100%30.36 "Hg0 mi
9:20 am34 °FFog.2 mph100%30.36 "Hg0 mi
8:50 am34 °FFog.5 mph93%30.36 "Hg0 mi
8:20 am32 °FFog.5 mph100%30.33 "Hg0 mi
7:50 am34 °FFog.3 mph93%30.33 "Hg0 mi
7:20 am32 °FIce fog.5 mph100%30.33 "Hg1 mi
6:50 am34 °FFog.No wind100%30.33 "Hg1 mi
6:20 am34 °FFog.5 mph100%30.33 "Hg2 mi
5:50 am34 °FFog.6 mph100%30.33 "Hg2 mi
5:20 am36 °FFog.5 mph93%30.33 "Hg2 mi
Weather by CustomWeather, © 2017

See weather overviewHow to use our weather pages